Change the Weather History Date:

Friday, September 7, 2012

  Actual Average Record
Temperature  
Mean Temperature 66 °F -  
Max Temperature 73 °F 74 °F 89 °F (2000)
Min Temperature 60 °F 58 °F 50 °F (2014)
Cooling Degree Days 1    
Growing Degree Days 16 (Base 50)    
Moisture  
Dew Point 59 °F    
Average Humidity 78    
Maximum Humidity 93    
Minimum Humidity 63    
Precipitation  
Precipitation 0.48 in - - ()
Sea Level Pressure  
Sea Level Pressure 29.81 in    
Wind  
Wind Speed 1 mph (ESE)    
Max Wind Speed 7 mph    
Max Gust Speed -    
Averages and records for this station are not official NWS values.
T = Trace of Precipitation, MM = Missing Value Source: NWS Daily Summary

Daily Weather History Graph

Daily Weather History Graph

Search for Another Location

Airport or City:

Trip Planner

Search our weather history database for the weather conditions in past years. The results will help you decide how hot, cold, wet, or windy it might be!

Date:

Astronomy

Sep. 07, 2012 Rise Set
Actual Time 7:01 AM EDT 7:55 PM EDT
Civil Twilight 6:32 AM EDT 8:24 PM EDT
Nautical Twilight 5:57 AM EDT 8:59 PM EDT
Astronomical Twilight 5:20 AM EDT 9:35 PM EDT
Moon 11:34 PM EDT (9/7) 2:08 PM EDT (9/7)
Length of Visible Light 13h 52m
Length of Day
12h 53m
Waning Gibbous, 58% of the Moon is Illuminated
Sep 7
Waning Gibbous
Sep 8
Last Quarter
Sep 15
New
Sep 22
First Quarter
Sep 29
Full

Hourly Weather History & Observations

Time (EDT) Temp. Dew Point Humidity Pressure Visibility Wind Dir Wind Speed Gust Speed Precip Events Conditions
12:51 AM 64.0 °F 57.0 °F 78% 29.88 in - Calm Calm - N/A   Unknown
1:51 AM 62.1 °F 55.9 °F 80% 29.88 in - Calm Calm - N/A   Unknown
2:51 AM 61.0 °F 55.0 °F 81% 29.87 in - Calm Calm - N/A   Unknown
3:51 AM 60.1 °F 55.0 °F 83% 29.86 in - Calm Calm - N/A   Unknown
4:51 AM 60.1 °F 55.0 °F 83% 29.86 in - Calm Calm - N/A   Unknown
5:51 AM 61.0 °F 55.9 °F 83% 29.84 in - Calm Calm - N/A   Unknown
6:51 AM 61.0 °F 57.0 °F 87% 29.85 in - Calm Calm - N/A   Unknown
7:51 AM 61.0 °F 57.9 °F 90% 29.87 in - WSW 3.5 mph - N/A   Unknown
8:51 AM 66.9 °F 62.1 °F 84% 29.86 in - Calm Calm - N/A   Unknown
9:51 AM 71.1 °F 63.0 °F 75% 29.87 in - Calm Calm - N/A   Unknown
10:51 AM 72.0 °F 63.0 °F 73% 29.86 in - Calm Calm - N/A   Unknown
11:51 AM 72.0 °F 64.9 °F 78% 29.86 in - WNW 6.9 mph - N/A   Unknown
12:51 PM 71.1 °F 61.0 °F 70% 29.85 in - Calm Calm - N/A   Unknown
1:51 PM 71.1 °F 61.0 °F 70% 29.84 in - Calm Calm - N/A   Unknown
2:51 PM 71.1 °F 60.1 °F 68% 29.81 in - Calm Calm - N/A   Unknown
3:51 PM 70.0 °F 57.0 °F 63% 29.78 in - East 3.5 mph - N/A   Unknown
4:51 PM 70.0 °F 57.9 °F 65% 29.76 in - East 4.6 mph - N/A   Unknown
5:51 PM 70.0 °F 60.1 °F 71% 29.75 in - Calm Calm - N/A   Unknown
6:51 PM 70.0 °F 61.0 °F 73% 29.74 in - SE 3.5 mph - N/A   Unknown
7:51 PM 66.9 °F 62.1 °F 84% 29.73 in - Calm Calm - N/A   Unknown
8:51 PM 68.0 °F 60.1 °F 76% 29.72 in - Calm Calm - 0.01 in   Unknown
9:51 PM 63.0 °F 61.0 °F 93% 29.71 in - Variable 4.6 mph - 0.16 in   Unknown
10:51 PM 63.0 °F 59.0 °F 87% 29.70 in - Variable 3.5 mph - 0.04 in   Unknown
11:51 PM 62.1 °F 57.9 °F 86% 29.68 in - Variable 5.8 mph - 0.27 in   Unknown